Tracking 35334 objects as of 12-Sep-2026
HD Live streaming from Space Station
objects crossing your sky now

STARLINK-1398


STARLINK-1398 is no longer on orbit
STARLINK-1398 is classified as:


NORAD ID: 45699
Int'l Code: 2020-035AU
Launch date: June 4, 2020
Source: United States (US)
Launch site: AIR FORCE EASTERN TEST RANGE (AFETR)
Decay date: 2026-03-28
Your satellite tracking list
Your tracking list is empty




NASA's NSSDC Master Catalog

Two Line Element Set (TLE):
1 45699U 20035AU  26087.53736678  .12582851  12604-4  22835-3 0  9993
2 45699  53.0199 200.6293 0004240 298.8573  61.2050 16.47436163323559
Source of the keplerian elements: AFSPC